Regional Weather Roundup
Issued by NWS Goodland, KS

Home | Current Version | Previous Version | Graphics & Text | Print | Product List | Glossary On
Versions: 1 2 3 4 5 6 7 8 9 10 11 12 13 14 15 16 17 18 19 20 21 22 23 24 25 26 27 28 29 30 31 32 33 34 35 36 37 38 39 40 41 42 43 44 45 46 47 48 49 50
000
ASUS43 KGLD 100908
RWRGLD

GOODLAND FORECAST AREA HOURLY WEATHER ROUNDUP
NATIONAL WEATHER SERVICE GOODLAND KS
300 AM MDT THU JUL 10 2014

...OFFICIAL OBSERVATIONS...

CITY           SKY/WX    TMP DP  RH WIND       PRES   REMARKS
GOODLAND KS    CLEAR     65  61  87 E16       29.97R
HILL CITY KS   LGT RAIN  65  62  90 SE10G18   29.96F
IMPERIAL NEB   CLOUDY    64  61  90 SE24G32   29.97S
MCCOOK NEB     CLOUDY    65  62  90 E17G25    29.98F
AKRON CO       CLEAR     69  51  52 SW15G28   29.97F
BURLINGTON CO  CLEAR     62  53  72 W8        29.95F
LIMON CO       PTCLDY    54  50  86 SW5       30.05F
$$

...UNOFFICIAL OBSERVATIONS...

CITY           SKY/WX    TMP DP  RH WIND       PRES   REMARKS
GOVE KS          N/A     67  32  27 CALM        N/A
LENORA KS        N/A     64  32  30 MISG        N/A
NORTON KS      CLOUDY    68  63  83 E15G24    30.00S
WAKEENEY KS      N/A     66  64  94 MISG        N/A
WRAY CO        FAIR      64  52  63 E6        29.96R
YUMA CO          N/A     65  53  65 SW10        N/A
$$



USA.gov is the U.S. government's official web portal to all federal, state and local government web resources and services.